• Em Portugal
  • Lista de países
  • Para 7 dias
  • Temperatura da água
  • Mapas de satélite
  • Mapa do tempo
  • Widgets de tempo
  • user-avatar
    Iniciar Sessão

    Previsão horária em Myitkyina

    Hoje, 22 Junho, Sexta-feira

    Tempo Temperatura Precipitação Vento Pressão Humidade
    00:00 +24°C° 0 mm 0 m/s 737 mmHg 92%
    01:00 +24°C° 1,1 mm 0 m/s 737 mmHg 92%
    02:00 +24°C° 1,1 mm 0 m/s 737 mmHg 93%
    03:00 +24°C° 1,1 mm 0 m/s 737 mmHg 93%
    04:00 +24°C° 0,9 mm 0 m/s 737 mmHg 93%
    05:00 +24°C° 0,9 mm 0 m/s 737 mmHg 93%
    06:00 +25°C° 0 mm 0 m/s 737 mmHg 92%
    07:00 +28°C° 0,5 mm 1 m/s 737 mmHg 89%
    08:00 +28°C° 0,5 mm 1 m/s 737 mmHg 87%
    09:00 +29°C° 0,5 mm 1 m/s 737 mmHg 84%
    10:00 +30°C° 0,9 mm 1 m/s 737 mmHg 83%
    11:00 +31°C° 0,9 mm 1 m/s 737 mmHg 82%
    12:00 +30°C° 0 mm 1 m/s 737 mmHg 82%
    13:00 +31°C° 0,9 mm 1 m/s 737 mmHg 82%
    14:00 +31°C° 0,9 mm 1 m/s 736 mmHg 81%
    15:00 +29°C° 0,9 mm 0 m/s 735 mmHg 80%
    16:00 +28°C° 0,5 mm 0 m/s 735 mmHg 83%
    17:00 +27°C° 0,5 mm 0 m/s 735 mmHg 87%
    18:00 +26°C° 0 mm 0 m/s 735 mmHg 91%
    19:00 +26°C° 0,2 mm 0 m/s 736 mmHg 92%
    20:00 +25°C° 0,2 mm 0 m/s 736 mmHg 92%
    21:00 +25°C° 0,2 mm 0 m/s 736 mmHg 93%
    22:00 +24°C° 0,6 mm 0 m/s 736 mmHg 93%
    23:00 +24°C° 0,6 mm 0 m/s 737 mmHg 93%

    Amanhã, 23 Junho, Sábado

    Tempo Temperatura Precipitação Vento Pressão Humidade
    00:00 +24°C° 0,6 mm 0 m/s 737 mmHg 93%
    01:00 +24°C° 1,3 mm 0 m/s 736 mmHg 94%
    02:00 +24°C° 1,3 mm 0 m/s 736 mmHg 94%
    03:00 +24°C° 1,3 mm 0 m/s 736 mmHg 95%
    04:00 +24°C° 1,3 mm 0 m/s 736 mmHg 94%
    05:00 +24°C° 1,3 mm 0 m/s 736 mmHg 94%
    06:00 +24°C° 1,3 mm 0 m/s 737 mmHg 94%
    07:00 +24°C° 1,5 mm 0 m/s 737 mmHg 93%
    08:00 +25°C° 1,5 mm 0 m/s 737 mmHg 92%
    09:00 +25°C° 1,5 mm 0 m/s 737 mmHg 91%
    10:00 +26°C° 2 mm 0 m/s 737 mmHg 90%
    11:00 +26°C° 2 mm 0 m/s 737 mmHg 89%
    12:00 +26°C° 2 mm 0 m/s 736 mmHg 88%
    13:00 +26°C° 1,1 mm 0 m/s 736 mmHg 88%
    14:00 +26°C° 1,1 mm 0 m/s 735 mmHg 89%
    15:00 +26°C° 1,1 mm 0 m/s 734 mmHg 90%
    16:00 +26°C° 0,2 mm 0 m/s 734 mmHg 91%
    17:00 +25°C° 0,2 mm 0 m/s 734 mmHg 92%
    18:00 +25°C° 0,2 mm 0 m/s 734 mmHg 93%
    19:00 +25°C° 0,6 mm 0 m/s 734 mmHg 94%
    20:00 +25°C° 0,6 mm 0 m/s 735 mmHg 94%
    21:00 +24°C° 0,6 mm 0 m/s 735 mmHg 95%
    22:00 +24°C° 0,8 mm 0 m/s 735 mmHg 95%
    23:00 +24°C° 0,8 mm 0 m/s 735 mmHg 95%

    Depois de amanhã, 24 Junho, Domingo

    Tempo Temperatura Precipitação Vento Pressão Humidade
    00:00 +24°C° 0,8 mm 0 m/s 735 mmHg 95%
    01:00 +24°C° 0,8 mm 0 m/s 735 mmHg 95%
    02:00 +24°C° 0,8 mm 0 m/s 735 mmHg 96%
    03:00 +23°C° 0,8 mm 0 m/s 735 mmHg 96%
    04:00 +24°C° 0,9 mm 0 m/s 735 mmHg 96%
    05:00 +24°C° 0,9 mm 0 m/s 735 mmHg 95%
    06:00 +24°C° 0,9 mm 0 m/s 735 mmHg 95%
    07:00 +24°C° 1,4 mm 0 m/s 735 mmHg 94%
    08:00 +24°C° 1,4 mm 0 m/s 736 mmHg 94%
    09:00 +24°C° 1,4 mm 0 m/s 736 mmHg 93%
    10:00 +24°C° 1,6 mm 0 m/s 736 mmHg 93%
    11:00 +25°C° 1,6 mm 0 m/s 736 mmHg 93%
    12:00 +25°C° 1,6 mm 0 m/s 736 mmHg 93%
    13:00 +25°C° 0,5 mm 0 m/s 735 mmHg 93%
    14:00 +25°C° 0,5 mm 0 m/s 734 mmHg 92%
    15:00 +27°C° 0,5 mm 1 m/s 734 mmHg 91%
    16:00 +25°C° 0,1 mm 0 m/s 734 mmHg 92%
    17:00 +25°C° 0,1 mm 0 m/s 734 mmHg 92%
    18:00 +25°C° 0,1 mm 0 m/s 734 mmHg 93%
    19:00 +25°C° 0,3 mm 0 m/s 734 mmHg 94%
    20:00 +24°C° 0,3 mm 0 m/s 735 mmHg 94%
    21:00 +24°C° 0,3 mm 0 m/s 736 mmHg 95%
    22:00 +24°C° 0,6 mm 0 m/s 736 mmHg 95%
    23:00 +24°C° 0,6 mm 0 m/s 736 mmHg 95%

    25 Junho, Segunda-feira

    Tempo Temperatura Precipitação Vento Pressão Humidade
    00:00 +24°C° 0,6 mm 0 m/s 736 mmHg 94%
    01:00 +24°C° 0,9 mm 0 m/s 735 mmHg 95%
    02:00 +23°C° 0,9 mm 0 m/s 735 mmHg 96%
    03:00 +23°C° 0,9 mm 0 m/s 734 mmHg 97%
    04:00 +23°C° 1 mm 0 m/s 735 mmHg 97%
    05:00 +25°C° 1 mm 1 m/s 735 mmHg 98%
    06:00 +25°C° 1 mm 1 m/s 735 mmHg 98%
    07:00 +26°C° 2,2 mm 1 m/s 735 mmHg 98%
    08:00 +26°C° 2,2 mm 1 m/s 736 mmHg 97%
    09:00 +26°C° 2,2 mm 1 m/s 736 mmHg 97%
    10:00 +26°C° 2,6 mm 1 m/s 736 mmHg 97%
    11:00 +26°C° 2,6 mm 1 m/s 736 mmHg 96%
    12:00 +26°C° 2,6 mm 1 m/s 736 mmHg 96%
    13:00 +27°C° 0,8 mm 1 m/s 735 mmHg 93%
    14:00 +28°C° 0,8 mm 1 m/s 734 mmHg 90%
    15:00 +28°C° 0,8 mm 1 m/s 734 mmHg 87%
    16:00 +26°C° 0,2 mm 0 m/s 734 mmHg 89%
    17:00 +26°C° 0,2 mm 0 m/s 733 mmHg 91%
    18:00 +25°C° 0,2 mm 0 m/s 733 mmHg 92%
    19:00 +25°C° 0,2 mm 0 m/s 734 mmHg 93%
    20:00 +24°C° 0,2 mm 0 m/s 735 mmHg 94%
    21:00 +24°C° 0,2 mm 0 m/s 735 mmHg 94%
    22:00 +24°C° 0,3 mm 0 m/s 735 mmHg 94%
    23:00 +24°C° 0,3 mm 0 m/s 735 mmHg 94%

    26 Junho, Terça-feira

    Tempo Temperatura Precipitação Vento Pressão Humidade
    00:00 +24°C° 0,3 mm 0 m/s 735 mmHg 94%
    01:00 +24°C° 0,6 mm 0 m/s 735 mmHg 94%
    02:00 +23°C° 0,6 mm 0 m/s 735 mmHg 94%
    03:00 +23°C° 0,6 mm 0 m/s 734 mmHg 94%
    04:00 +23°C° 1,4 mm 0 m/s 734 mmHg 94%
    05:00 +23°C° 1,4 mm 0 m/s 735 mmHg 95%
    06:00 +23°C° 1,4 mm 0 m/s 735 mmHg 95%
    07:00 +24°C° 2,5 mm 0 m/s 735 mmHg 95%
    08:00 +24°C° 2,5 mm 0 m/s 736 mmHg 94%
    09:00 +24°C° 2,5 mm 0 m/s 736 mmHg 94%
    10:00 +24°C° 1,8 mm 0 m/s 736 mmHg 94%
    11:00 +24°C° 1,8 mm 0 m/s 736 mmHg 94%
    12:00 +24°C° 1,8 mm 0 m/s 736 mmHg 95%
    13:00 +25°C° 0,6 mm 0 m/s 735 mmHg 93%
    14:00 +25°C° 0,6 mm 0 m/s 735 mmHg 91%
    15:00 +26°C° 0,6 mm 0 m/s 735 mmHg 88%
    16:00 +26°C° 0,1 mm 0 m/s 735 mmHg 90%
    17:00 +25°C° 0,1 mm 0 m/s 735 mmHg 92%
    18:00 +25°C° 0,1 mm 0 m/s 735 mmHg 94%
    19:00 +24°C° 0,1 mm 0 m/s 736 mmHg 95%
    20:00 +24°C° 0,1 mm 0 m/s 736 mmHg 95%
    21:00 +24°C° 0,1 mm 0 m/s 737 mmHg 96%
    22:00 +24°C° 0,5 mm 0 m/s 737 mmHg 96%
    23:00 +23°C° 0,5 mm 0 m/s 737 mmHg 96%

    27 Junho, Quarta-feira

    Tempo Temperatura Precipitação Vento Pressão Humidade
    00:00 +23°C° 0,5 mm 0 m/s 737 mmHg 97%
    01:00 +23°C° 1,1 mm 0 m/s 736 mmHg 97%
    02:00 +23°C° 1,1 mm 0 m/s 736 mmHg 97%
    03:00 +23°C° 1,1 mm 0 m/s 736 mmHg 97%
    04:00 +23°C° 1 mm 0 m/s 736 mmHg 97%
    05:00 +23°C° 1 mm 0 m/s 737 mmHg 97%
    06:00 +23°C° 1 mm 0 m/s 737 mmHg 97%
    07:00 +24°C° 0,4 mm 0 m/s 737 mmHg 95%
    08:00 +25°C° 0,4 mm 0 m/s 738 mmHg 92%
    09:00 +26°C° 0,4 mm 0 m/s 738 mmHg 90%
    10:00 +26°C° 0,7 mm 0 m/s 738 mmHg 87%
    11:00 +27°C° 0,7 mm 0 m/s 738 mmHg 85%
    12:00 +28°C° 0,7 mm 0 m/s 737 mmHg 83%
    13:00 +28°C° 0,8 mm 0 m/s 737 mmHg 83%
    14:00 +28°C° 0,8 mm 0 m/s 736 mmHg 83%
    15:00 +30°C° 0,8 mm 1 m/s 736 mmHg 84%
    16:00 +27°C° 0,3 mm 0 m/s 736 mmHg 87%
    17:00 +27°C° 0,3 mm 0 m/s 736 mmHg 90%
    18:00 +26°C° 0,3 mm 0 m/s 736 mmHg 93%
    19:00 +25°C° 0,2 mm 0 m/s 737 mmHg 93%
    20:00 +25°C° 0,2 mm 0 m/s 737 mmHg 94%
    21:00 +24°C° 0,2 mm 0 m/s 737 mmHg 95%
    22:00 +24°C° 0,3 mm 0 m/s 737 mmHg 95%
    23:00 +24°C° 0,3 mm 0 m/s 737 mmHg 96%
    Mostrar mais